GFSGL_sfc_dewp_057.txt.gz
Dewpoint
46 50 52 52 52 58 61 63 65 69 70 69 67 69 71 72 73 74 72 70 70 72 71 70 71 71 66 64 65 64 69 67 62 65 65 64 64 65 65 63 64 64 61
43 47 49 52 54 58 60 62 65 67 68 68 67 67 67 70 73 72 70 65 69 68 70 69 69 67 68 69 70 69 64 65 58 63 63 61 63 64 65 64 64 67 65
42 45 53 55 57 58 60 62 64 64 65 66 65 65 66 68 69 70 68 66 68 68 69 69 68 68 69 67 67 68 61 60 61 61 64 60 63 63 63 64 65 66 63
43 45 50 55 57 57 60 61 63 63 63 63 66 64 65 65 66 67 68 68 69 69 70 69 67 66 66 67 67 64 62 63 63 64 63 60 60 63 61 62 63 66 61
44 45 49 54 55 53 56 59 61 62 61 61 62 63 66 65 62 68 68 69 70 69 69 66 67 65 63 64 60 65 66 61 65 66 64 60 59 60 60 61 62 63 62
45 46 48 50 50 54 59 60 63 63 63 63 63 63 66 60 54 56 66 69 68 67 67 67 66 63 61 57 59 57 61 66 65 65 58 58 61 60 62 60 63 59 58
46 45 45 49 50 51 53 56 61 66 68 67 66 66 67 68 53 54 58 68 68 69 68 68 65 61 61 62 57 56 57 56 59 65 63 63 62 61 62 61 60 61 62
45 45 42 45 48 51 55 57 63 67 69 70 69 69 70 66 51 52 55 67 67 67 66 66 65 64 62 61 61 60 60 61 62 60 64 63 62 63 65 64 64 64 63
45 43 43 44 49 53 54 60 65 67 69 70 69 69 69 65 49 52 59 66 65 64 62 62 61 61 55 51 62 61 62 62 53 52 54 52 52 54 58 65 63 59 57
44 43 44 45 50 55 59 64 66 70 70 68 68 69 62 66 47 50 57 59 63 59 62 64 54 60 48 48 64 64 63 63 60 61 61 57 58 58 52 65 64 59 55
46 46 46 50 56 59 65 68 68 69 67 67 67 67 66 64 58 47 49 63 58 59 59 62 61 46 45 46 49 66 63 63 58 63 61 60 61 61 59 62 65 57 55
48 47 49 54 58 62 66 67 68 66 66 67 67 65 64 62 54 48 49 52 56 59 59 61 57 44 44 47 55 48 50 55 65 65 62 60 59 59 59 62 64 61 58
50 51 53 58 61 64 66 64 64 65 64 64 62 62 61 60 59 46 45 47 50 64 60 51 45 43 44 49 44 46 51 61 63 63 62 63 61 59 62 63 62 63 62
51 53 57 60 61 64 64 65 65 66 64 61 59 58 58 59 59 59 59 58 51 55 51 56 54 53 50 54 54 55 60 63 62 61 61 61 59 59 58 63 60 60 59
53 57 60 62 63 62 59 62 65 65 59 58 58 57 56 56 57 55 56 58 60 56 58 59 59 59 59 59 59 60 61 59 59 61 58 58 57 56 57 58 58 57 56
56 60 61 62 59 59 59 56 44 46 45 44 48 53 54 47 45 45 45 45 47 48 57 58 57 58 57 58 58 59 57 55 57 58 59 57 56 56 56 56 57 56 56
58 61 61 59 60 60 60 59 57 52 45 42 43 44 46 44 43 43 43 44 43 46 61 59 57 57 56 56 57 56 58 58 57 58 58 58 56 55 55 56 56 56 56
60 54 62 60 58 58 58 58 57 56 56 55 45 46 41 41 42 43 44 48 57 57 59 56 56 57 57 56 56 56 56 57 57 57 57 57 57 56 56 56 56 56 56
59 61 60 61 60 58 56 55 54 55 55 53 52 46 44 41 43 44 45 57 57 57 58 57 56 57 56 56 56 55 55 56 56 57 57 57 58 58 56 56 56 48 50
58 52 57 61 59 59 56 55 55 55 55 56 54 52 53 54 56 57 59 57 58 57 57 57 57 57 57 56 55 55 55 56 56 57 58 59 58 56 56 57 56 57 56
57 58 53 59 58 56 55 54 55 55 54 55 55 53 42 55 54 54 55 57 57 56 58 58 57 56 55 56 57 56 57 58 58 59 58 57 57 56 56 56 55 54 55
58 57 56 55 56 56 56 54 54 54 53 52 50 46 39 52 51 51 51 52 54 55 55 55 54 55 56 56 57 58 57 58 56 57 56 55 56 58 59 59 58 58 57
54 57 57 56 56 52 55 54 54 53 52 51 50 50 49 49 50 49 49 49 51 52 52 53 53 52 53 52 54 57 56 57 59 60 60 59 58 58 56 55 52 50 51
59 58 57 57 55 55 55 54 52 48 50 49 47 46 45 46 46 45 45 46 47 49 48 47 47 46 46 45 49 50 51 54 56 56 57 55 53 51 51 49 48 48 45
57 57 56 56 55 55 54 53 52 50 48 46 44 44 43 43 42 41 42 43 42 43 43 41 40 39 38 37 38 38 34 33 46 42 47 45 42 40 40 36 33 32 33
59 58 57 56 55 54 54 52 51 51 48 46 43 41 42 41 40 40 39 39 37 35 34 33 34 35 34 34 33 31 31 31 34 32 35 35 33 31 29 27 25 23 25

GFSGL_sfc_dewp_060.txt.gz
Dewpoint
52 54 57 56 58 60 60 61 61 65 66 66 66 67 70 72 73 73 73 72 72 71 70 70 71 70 70 69 69 67 66 65 61 62 65 65 64 64 64 64 65 64 62
49 52 55 57 59 60 58 60 63 63 65 65 66 66 65 65 70 72 72 71 71 70 70 70 70 70 70 69 69 68 65 66 64 60 63 63 62 63 63 63 64 65 64
46 48 55 56 59 59 60 61 61 61 62 64 65 65 66 67 69 72 72 71 69 69 70 70 70 70 69 68 68 67 65 66 65 62 63 62 62 62 61 62 63 64 64
43 46 50 57 59 60 61 60 59 58 59 62 64 65 66 66 68 71 71 69 69 70 70 70 70 69 68 68 67 67 65 64 63 63 63 62 61 61 61 60 60 62 61
42 48 51 56 59 57 57 57 57 58 60 61 62 64 65 66 66 69 69 69 70 70 71 70 70 68 65 66 68 66 64 63 64 62 61 61 60 60 58 60 60 61 61
49 46 50 50 51 55 55 58 58 57 59 61 62 62 65 64 57 58 66 69 70 70 69 69 66 61 60 58 56 57 64 64 62 62 61 59 60 59 61 60 60 60 57
46 48 47 52 48 51 52 53 56 60 60 61 64 64 64 67 49 53 58 70 70 69 69 69 65 63 62 61 57 57 55 55 60 63 61 61 60 61 61 60 60 59 59
44 46 48 50 46 48 50 54 57 59 61 63 64 66 66 67 50 52 57 70 69 69 69 68 68 66 64 63 62 62 62 62 62 61 64 63 63 63 62 62 61 61 61
44 45 49 49 46 48 49 55 58 58 59 63 64 67 67 63 50 52 62 69 68 68 67 67 67 66 55 52 62 61 61 60 53 52 55 52 53 55 59 63 61 60 58
45 44 45 45 47 48 51 55 56 60 62 63 64 67 63 64 48 51 62 66 66 65 66 62 54 61 48 49 64 63 62 62 60 61 60 56 57 56 54 63 61 59 57
46 45 47 49 49 50 53 58 60 61 63 63 65 67 67 63 56 48 53 65 63 63 61 65 59 46 44 45 51 64 61 62 58 62 62 61 62 62 61 62 63 62 57
47 48 48 50 50 49 54 57 60 63 64 64 65 66 66 64 52 47 52 53 57 61 62 62 52 44 45 48 54 47 49 55 63 62 61 60 60 61 61 62 62 62 62
49 50 51 52 50 52 55 57 61 64 63 64 64 64 63 61 56 46 46 50 53 62 61 52 44 44 45 48 44 46 51 62 61 60 60 61 61 61 61 61 62 62 62
49 51 52 53 53 54 56 59 61 63 63 63 63 63 62 61 60 58 56 55 50 53 51 54 53 52 50 53 55 56 62 62 61 60 60 61 61 61 59 62 60 61 60
51 52 52 52 52 54 57 59 62 64 63 64 63 62 59 59 59 57 58 60 61 56 57 59 59 59 59 59 59 60 62 61 60 61 61 59 59 59 60 60 60 59 58
51 51 52 54 55 57 55 52 45 49 49 49 51 57 58 52 48 45 44 46 47 48 57 58 58 58 58 59 60 61 61 58 61 61 60 59 57 57 57 58 58 58 57
51 52 54 54 57 58 57 56 54 50 44 43 46 48 50 48 43 43 45 45 44 51 60 59 58 60 59 59 60 59 57 59 59 59 59 59 58 58 56 57 57 56 56
55 50 56 59 59 58 59 59 59 56 55 53 43 45 42 42 42 43 44 49 57 57 61 59 59 59 59 58 58 58 59 59 58 59 59 58 58 58 56 56 56 56 56
57 58 61 61 61 58 58 57 57 55 54 53 52 47 44 42 43 44 46 58 59 59 59 58 59 59 58 58 58 58 58 57 58 58 58 59 59 58 57 57 56 47 49
59 51 55 59 59 59 57 55 55 55 55 54 53 53 54 55 57 58 59 58 58 58 58 57 58 57 57 57 57 57 57 57 57 58 59 59 60 58 57 57 56 57 56
59 59 52 58 59 57 57 56 55 55 54 54 54 52 42 56 56 57 57 57 57 57 58 58 57 57 57 57 57 56 57 57 59 60 59 57 57 57 58 57 57 57 58
60 59 57 57 55 56 56 55 55 55 54 53 51 47 42 53 53 53 55 56 57 57 56 55 55 55 56 57 59 59 59 59 58 59 58 57 57 58 59 59 58 57 55
59 58 56 57 55 51 54 53 53 53 53 52 52 51 51 50 50 50 50 53 53 53 53 54 53 52 50 51 57 57 57 59 60 60 60 60 59 57 54 52 50 49 44
58 58 55 55 54 54 54 53 52 48 50 48 49 49 48 47 47 46 46 49 48 47 46 45 45 44 44 46 47 47 48 55 55 55 55 54 53 51 51 48 45 42 39
56 56 55 55 54 53 52 52 50 49 48 46 46 46 45 44 44 43 43 45 43 41 41 41 39 38 38 38 38 38 34 33 44 40 42 41 39 39 35 32 33 33 32
57 56 55 55 53 52 51 50 50 47 45 44 43 43 42 41 41 41 39 38 37 35 35 36 35 34 32 31 30 30 30 30 33 32 36 36 34 31 28 27 26 25 29

GFSGL_sfc_dewp_063.txt.gz
Dewpoint
45 45 48 49 51 53 56 58 60 60 61 61 63 63 65 66 67 66 65 65 66 66 70 71 70 68 68 67 65 64 63 62 59 60 62 62 61 62 62 63 63 62 61
48 48 48 50 52 53 54 55 57 58 59 61 63 63 64 65 68 66 66 68 69 70 70 70 69 70 68 67 65 64 63 63 60 58 60 60 60 60 61 61 63 64 61
40 41 45 50 50 51 53 54 53 53 55 57 57 59 61 64 65 70 70 70 70 70 70 69 68 69 68 67 64 64 63 64 62 60 59 60 59 59 58 59 61 59 61
38 39 41 47 52 52 53 55 56 56 55 56 57 59 62 64 64 66 67 70 71 70 70 69 68 69 68 66 65 64 63 62 61 60 59 58 58 58 58 57 57 59 58
45 45 44 47 51 55 55 56 58 57 56 55 54 56 58 62 63 65 69 70 71 68 69 69 69 68 65 66 66 64 62 61 60 59 57 57 57 56 55 57 57 58 58
44 45 47 48 49 49 52 53 55 55 55 54 54 57 58 59 56 55 61 70 68 68 68 68 67 63 62 60 59 61 61 61 59 58 57 57 56 56 57 57 57 56 54
44 45 44 44 46 51 50 52 52 53 55 55 54 54 57 61 54 52 54 69 68 67 67 65 64 63 60 59 56 55 55 56 58 59 58 58 57 58 58 57 59 56 56
44 44 43 42 44 48 49 48 49 51 51 56 57 57 56 60 55 50 52 68 67 66 67 64 64 61 60 59 60 59 59 59 60 61 60 60 60 60 60 59 58 58 59
41 41 42 43 42 45 46 46 47 52 53 53 56 58 62 63 52 48 52 66 66 66 66 65 64 63 54 52 61 60 59 57 52 52 56 53 52 54 58 60 58 58 57
41 41 41 43 46 46 46 45 47 51 52 53 57 60 59 63 53 47 55 66 65 65 63 62 57 62 48 49 60 59 57 57 58 58 57 55 56 55 54 59 59 58 56
41 41 43 44 46 49 48 48 51 53 56 57 59 60 61 62 55 49 52 66 65 64 62 60 56 48 46 46 54 60 59 59 57 60 59 58 59 58 59 59 60 59 57
44 44 44 46 46 46 46 49 53 55 55 56 58 59 62 58 52 48 52 58 58 62 61 58 50 44 44 45 53 48 46 54 61 60 59 59 58 58 59 59 60 60 60
46 46 45 46 47 47 48 50 51 53 56 56 58 60 61 58 55 48 49 50 52 61 60 52 43 43 44 46 44 44 48 60 60 58 58 59 58 59 58 59 59 59 59
46 47 48 48 48 49 49 50 52 54 56 57 59 59 61 57 56 55 54 53 49 51 49 51 51 52 51 50 53 54 59 60 60 59 59 60 60 58 57 58 57 58 57
46 47 47 47 48 50 51 53 54 55 55 56 59 61 60 58 57 55 56 58 58 55 55 57 57 57 56 56 57 58 59 60 59 60 60 59 59 57 57 58 57 57 55
47 46 47 49 51 51 52 51 43 42 43 46 48 59 61 53 49 49 48 48 47 49 57 57 57 57 56 56 56 57 58 58 59 60 59 58 57 57 58 58 57 56 54
48 48 50 50 51 52 53 54 53 47 44 46 48 48 51 50 44 46 47 46 44 51 57 57 57 57 57 58 57 57 56 57 59 59 59 58 57 57 55 56 56 55 55
50 46 51 52 52 53 54 55 55 55 54 52 46 49 44 43 44 44 44 49 57 55 58 57 57 57 57 57 57 57 58 57 58 58 58 57 57 56 55 55 55 56 55
48 52 52 54 55 55 57 57 56 55 53 51 51 46 44 43 43 43 48 58 58 57 57 57 58 57 57 57 57 58 57 57 56 58 57 58 57 56 55 54 55 47 48
52 49 50 57 57 57 58 56 56 56 56 55 54 53 54 55 57 57 57 57 56 57 57 57 57 56 56 56 56 56 56 56 56 57 57 57 57 57 55 56 55 54 53
55 55 49 56 58 57 57 56 56 55 55 55 55 51 43 57 57 57 56 56 56 56 57 57 57 56 56 56 56 56 56 56 57 57 57 57 57 55 56 57 55 56 56
56 58 58 57 57 56 56 55 55 54 53 52 52 48 43 56 56 56 57 57 56 57 57 56 55 55 56 57 57 56 56 56 58 58 57 57 56 57 58 57 53 50 49
58 57 56 56 55 52 54 54 53 52 52 52 52 52 52 53 54 53 53 54 53 54 54 52 49 48 50 52 53 55 56 56 57 57 56 57 55 52 49 46 41 39 39
55 55 54 53 53 53 53 52 51 48 50 50 50 49 48 48 50 49 48 47 45 44 43 42 42 43 44 45 45 45 47 49 51 51 51 50 47 39 39 38 37 37 36
54 54 53 53 52 51 50 49 48 48 48 47 47 46 45 44 45 44 42 41 41 39 38 38 37 36 36 36 37 37 35 36 41 37 38 36 34 33 32 32 31 30 31
54 53 53 52 51 50 49 48 46 46 45 44 44 43 43 40 39 38 37 36 35 34 33 32 31 31 31 31 31 30 31 31 32 32 33 31 29 28 28 27 26 27 27

GFSGL_sfc_dewp_069.txt.gz
Dewpoint
44 44 43 43 46 48 49 49 50 52 53 55 56 57 60 62 62 63 63 63 63 62 62 62 61 62 62 65 64 64 65 64 62 60 60 61 60 61 62 61 62 61 61
40 39 39 40 42 44 45 47 49 50 52 55 57 58 60 61 62 63 64 64 64 64 64 64 64 64 62 64 68 67 65 63 61 59 59 60 59 60 60 59 61 62 59
40 41 42 43 44 45 46 48 49 50 51 53 55 56 58 60 61 62 64 65 65 65 65 65 65 65 66 67 67 66 63 63 61 59 58 59 59 59 57 57 58 57 59
43 44 43 43 43 44 46 48 49 50 51 51 51 52 55 55 56 57 58 60 62 64 66 66 67 67 67 67 66 66 62 62 61 60 58 57 57 57 56 55 56 60 56
38 38 39 39 41 45 48 50 52 53 54 54 53 54 55 55 55 55 56 57 60 62 64 67 68 68 64 65 67 64 62 61 59 58 57 55 56 57 55 55 55 56 55
41 40 42 45 47 48 48 48 49 49 49 50 53 54 54 54 50 50 52 55 58 60 61 64 66 64 63 59 59 59 62 61 59 58 56 56 55 55 54 55 55 56 57
41 41 43 44 44 45 44 45 46 46 47 48 49 51 52 53 49 48 48 53 57 58 60 62 64 67 62 65 56 55 56 55 58 60 58 57 56 56 55 54 55 54 54
42 42 42 43 43 43 43 42 42 44 46 46 46 48 50 52 48 46 47 52 55 57 59 61 63 65 65 64 62 62 61 59 59 61 60 59 58 57 57 57 56 55 55
39 39 41 42 43 43 42 41 43 44 44 45 46 48 49 51 48 47 49 55 57 58 60 62 65 65 57 50 63 62 59 58 52 51 52 52 51 51 55 57 55 55 53
35 37 39 42 42 42 42 42 42 44 43 44 42 45 50 51 49 47 49 55 55 58 60 63 54 61 49 48 62 60 59 57 58 57 57 53 52 51 50 58 57 55 53
38 37 39 42 42 43 43 43 43 43 44 46 47 48 52 53 53 47 45 54 57 59 61 63 61 49 46 47 52 60 58 58 55 57 57 56 57 56 57 57 58 57 54
40 40 40 40 41 41 43 42 43 46 46 47 48 49 52 53 49 48 46 45 50 58 61 62 60 45 45 45 51 49 46 52 57 56 55 55 55 56 57 58 58 58 58
39 39 39 39 40 41 42 42 43 46 47 47 48 49 51 54 55 49 47 45 44 49 60 59 50 44 44 47 49 45 48 58 57 55 55 55 56 56 56 57 57 57 57
39 40 41 42 42 43 43 43 45 47 48 48 48 49 51 53 55 55 55 56 48 50 49 50 51 51 49 53 50 50 58 59 58 56 55 56 57 56 56 56 55 55 55
39 39 38 40 41 42 44 45 46 47 48 49 50 51 51 53 54 52 52 56 57 54 53 54 56 57 56 56 56 57 59 59 57 57 58 58 57 56 56 56 55 54 53
40 40 41 42 44 46 47 47 43 44 44 43 43 49 53 47 45 43 43 43 45 45 56 57 58 58 57 57 58 58 59 57 57 58 59 58 56 56 56 55 54 54 53
41 40 42 44 47 47 48 48 47 45 42 41 40 40 41 46 42 42 42 41 42 45 57 58 57 57 56 57 57 58 58 59 59 59 59 57 57 57 56 55 54 53 53
44 42 45 46 47 48 48 48 48 48 48 49 44 42 41 40 40 41 41 44 50 52 58 57 56 55 55 55 55 55 56 57 57 57 56 57 56 57 56 55 55 55 55
44 46 46 48 47 47 48 48 49 49 50 50 49 44 42 39 40 40 42 57 57 57 57 56 56 55 55 56 55 56 56 56 56 56 56 56 57 56 55 54 51 45 50
46 43 45 48 49 48 48 49 49 50 50 50 48 48 47 46 48 48 53 58 57 57 56 56 56 56 56 56 56 57 55 54 55 56 56 57 57 55 54 53 52 52 51
48 48 46 50 49 50 50 50 50 51 50 52 50 48 40 52 52 54 57 57 57 57 56 56 56 56 56 56 56 56 57 57 58 57 57 56 56 53 54 54 53 53 53
48 49 50 48 51 52 52 52 53 52 51 52 51 47 38 57 57 56 56 56 55 55 56 56 56 56 57 57 56 57 57 57 57 57 56 56 55 54 55 55 54 54 53
53 55 55 55 55 51 55 54 53 53 51 52 51 51 54 57 56 56 54 53 52 53 53 55 55 53 54 55 56 57 57 57 57 57 55 56 54 50 47 47 49 48 45
56 55 55 55 54 54 53 53 53 50 53 55 54 54 53 52 51 49 48 48 48 48 49 50 52 52 52 52 53 55 56 57 56 54 52 48 44 42 42 41 39 38 36
54 53 53 53 52 52 51 51 51 51 51 51 49 48 48 48 47 46 45 46 46 45 43 44 47 47 47 48 48 48 41 41 47 41 42 39 37 35 33 31 31 31 28
52 51 52 51 50 50 49 48 48 47 46 46 46 45 44 44 44 43 43 43 41 41 40 39 39 39 39 40 40 35 34 34 35 33 34 33 30 28 27 26 25 24 24

GFSGL_sfc_dewp_072.txt.gz
Dewpoint
47 48 49 49 51 51 51 51 52 53 54 55 56 57 59 61 63 63 63 63 64 64 64 64 63 63 62 63 63 64 63 63 61 64 63 64 63 64 64 64 64 64 63
46 47 48 47 48 49 50 50 51 52 53 54 55 57 58 59 61 62 62 64 64 63 64 64 64 64 63 63 64 64 64 64 63 62 63 62 63 63 63 63 64 63 62
43 43 44 45 45 46 47 48 49 50 51 53 55 55 56 58 59 61 62 63 64 64 64 65 65 66 64 64 64 64 66 66 65 63 62 62 62 62 61 61 62 62 61
44 44 44 44 45 46 48 50 51 52 53 53 54 54 55 56 57 58 58 60 61 62 63 65 66 67 66 66 66 66 65 64 63 62 61 61 61 61 60 61 60 62 61
42 44 45 46 46 47 47 50 51 53 53 54 54 54 55 56 55 57 58 59 59 59 61 62 65 65 64 65 68 68 64 64 63 62 60 60 59 58 60 59 59 60 60
43 41 43 43 44 46 49 51 52 52 53 53 54 54 54 53 50 49 54 57 58 59 59 59 61 61 62 58 58 58 63 64 63 62 61 60 59 60 59 58 59 59 58
42 43 44 46 46 48 49 50 49 50 50 49 49 51 52 53 48 47 48 54 56 57 58 59 60 61 61 65 60 55 55 55 59 63 61 61 60 60 59 58 59 60 59
40 41 43 43 45 46 47 47 47 48 48 48 48 49 50 50 47 46 47 53 55 56 58 59 60 60 62 63 66 64 63 62 61 63 64 63 63 61 61 61 61 60 60
38 39 40 41 44 45 45 46 46 45 45 46 48 48 50 51 45 44 46 53 56 57 59 60 60 62 56 50 64 64 62 61 55 52 53 51 50 51 56 61 60 60 59
37 37 38 39 41 42 44 45 46 46 46 46 47 49 48 50 45 44 46 53 56 57 59 60 52 57 50 46 62 63 61 61 59 59 57 54 53 52 50 63 61 59 58
38 37 38 39 39 41 43 44 44 45 46 47 48 49 49 50 51 45 45 52 55 57 58 59 61 50 46 44 50 63 61 60 57 60 61 60 59 57 60 61 62 62 58
38 38 39 40 40 39 43 44 45 46 46 46 47 48 50 52 47 47 45 44 51 56 57 59 61 49 44 43 50 48 46 54 60 59 59 59 59 60 60 61 62 62 61
38 39 39 41 41 41 43 44 44 46 44 45 46 47 48 51 53 45 44 43 44 49 55 55 47 44 42 47 45 45 48 59 59 59 59 59 60 60 61 61 61 61 61
37 37 39 40 41 43 42 44 43 45 46 46 47 48 49 50 52 53 53 52 47 49 50 53 51 49 48 52 51 52 60 59 59 60 59 60 60 59 60 61 60 60 60
38 37 37 39 40 40 41 43 43 45 46 47 48 48 49 49 50 50 52 56 56 54 53 54 55 55 54 56 56 56 59 59 59 59 59 59 59 59 59 59 59 59 58
39 38 39 39 41 42 44 46 41 42 42 41 42 48 51 47 45 43 42 42 42 43 55 55 56 57 57 57 57 57 59 57 59 60 60 59 58 58 58 58 57 58 57
40 39 39 39 38 42 44 44 44 46 41 41 40 41 41 43 41 41 41 40 40 42 57 57 57 58 58 58 58 58 58 59 60 60 60 59 58 58 57 57 57 57 56
42 40 42 43 44 46 47 47 48 48 47 48 43 43 40 40 39 39 40 41 50 46 56 58 57 58 59 58 58 58 59 59 60 60 60 59 59 58 58 57 57 56 56
44 44 44 45 46 47 48 49 49 49 49 49 49 43 42 39 39 39 39 50 53 53 56 57 57 57 58 58 58 58 58 58 59 59 58 58 58 58 56 56 55 49 51
44 42 45 47 48 48 48 49 48 48 48 47 48 49 48 44 46 46 46 51 55 57 57 57 57 57 58 57 58 58 57 58 58 59 59 59 59 58 55 55 55 55 55
46 46 44 48 49 48 48 48 47 46 48 48 50 49 41 50 51 50 50 54 57 57 57 57 57 57 57 58 58 57 58 58 59 59 58 58 57 55 56 55 55 55 56
48 48 47 47 48 48 50 48 48 50 51 50 51 49 36 49 51 52 55 57 58 58 57 57 58 57 57 57 58 59 59 59 59 58 58 57 56 57 57 57 57 57 55
48 48 49 48 49 47 50 49 50 51 51 52 52 51 48 53 56 56 55 55 56 56 58 58 57 57 58 59 59 59 57 58 59 59 58 57 56 56 55 54 53 50 47
48 49 48 48 50 49 50 52 52 48 51 51 52 52 54 54 53 52 51 52 54 55 57 57 57 57 57 57 57 57 58 58 58 57 56 53 48 49 50 48 42 39 36
53 53 53 52 52 52 53 53 52 52 52 52 52 51 51 49 48 48 49 52 52 51 52 53 54 55 55 54 55 54 43 41 51 46 49 47 45 44 42 39 35 32 30
50 50 50 50 50 50 49 49 49 49 48 48 48 48 47 46 46 48 49 48 47 47 47 46 47 48 48 49 49 39 36 35 39 37 42 39 36 34 33 31 28 25 26

GFSGL_sfc_dewp_075.txt.gz
Dewpoint
56 57 57 56 57 58 58 59 59 60 59 58 59 61 60 61 64 65 65 64 64 64 65 64 63 65 62 65 66 64 63 63 60 61 64 66 68 67 67 66 66 66 63
52 53 54 55 55 57 56 56 57 56 56 56 56 56 56 58 62 61 59 58 59 59 58 61 60 60 65 66 66 65 64 64 63 64 66 67 66 67 67 66 66 65 65
48 48 52 53 55 56 56 57 55 55 54 54 54 55 55 56 58 60 58 57 58 58 58 59 60 62 63 64 67 66 65 64 64 63 63 65 66 65 66 66 66 65 63
45 47 49 52 52 53 54 54 53 52 52 53 54 52 53 55 55 55 56 57 58 57 59 61 59 60 62 64 65 67 66 65 65 64 64 65 64 64 64 64 63 63 62
44 45 49 52 52 51 51 52 52 53 54 53 54 54 55 56 53 57 58 58 58 58 59 59 58 59 59 61 62 66 68 66 65 65 63 64 63 62 63 63 62 62 62
42 44 45 47 48 50 51 52 54 54 55 55 55 54 56 48 50 51 52 52 52 55 58 58 58 58 58 56 56 56 62 67 67 67 64 64 64 63 63 63 62 60 59
40 40 41 45 45 48 49 50 53 56 57 56 55 52 52 52 48 47 48 50 52 53 55 57 56 51 58 59 56 55 55 53 57 68 67 65 64 64 64 64 62 61 60
39 39 39 39 42 47 48 50 54 55 55 54 52 52 51 49 46 45 46 50 50 52 54 57 59 59 59 59 60 63 65 67 62 62 67 66 66 67 66 64 64 63 62
38 39 39 39 41 43 47 51 53 53 53 52 51 51 51 51 44 44 46 47 46 50 51 54 57 59 53 48 61 63 64 65 56 53 53 52 52 53 60 62 60 59 58
38 38 39 39 41 43 46 48 51 51 50 47 48 50 47 50 44 42 45 42 46 47 52 55 52 56 50 46 60 63 64 64 61 61 61 56 55 55 51 64 61 58 57
39 38 39 41 42 44 48 49 50 49 47 50 48 49 50 49 50 43 42 46 45 45 46 50 52 48 45 44 45 61 64 64 59 64 63 60 62 62 61 63 64 60 57
39 39 40 43 41 39 47 47 48 48 48 49 48 47 45 50 46 44 43 42 47 51 50 51 55 47 45 46 47 48 47 54 64 63 62 61 60 62 61 62 64 63 62
41 42 41 42 40 41 43 44 41 47 43 43 41 43 41 44 48 44 43 42 43 48 51 51 45 46 44 47 42 44 45 63 63 62 61 61 62 61 63 63 64 64 64
41 41 42 41 41 42 40 41 42 42 43 41 41 41 42 44 45 45 47 50 44 48 50 53 52 50 48 53 52 49 62 63 62 62 62 62 62 61 61 61 61 61 62
41 40 41 40 41 42 42 43 42 46 43 42 43 43 43 43 44 44 44 46 47 49 54 57 55 57 56 57 58 58 61 62 62 62 62 61 61 60 60 61 60 61 60
40 40 39 39 38 39 41 42 41 41 41 41 41 43 43 41 41 42 42 42 42 43 54 56 55 57 56 58 58 58 60 58 62 61 60 59 59 58 58 59 59 59 58
40 40 39 39 39 39 42 41 41 44 41 40 39 41 41 40 42 41 41 40 40 42 55 56 55 56 57 58 58 59 58 61 62 61 60 59 59 58 57 58 58 58 56
41 40 41 41 41 43 45 45 46 46 45 46 42 42 39 40 39 40 40 41 51 46 54 54 56 57 58 59 60 59 60 61 61 61 62 60 60 59 58 57 57 57 56
42 43 43 43 42 44 46 46 46 47 46 46 47 43 44 40 40 38 38 49 52 52 53 53 56 59 59 60 61 60 60 61 61 62 61 61 60 59 59 58 57 50 53
43 40 43 46 47 47 48 47 48 48 48 48 49 48 50 45 46 47 46 49 52 52 53 54 57 59 59 59 59 59 60 59 61 61 61 61 60 59 58 57 56 55 55
45 43 42 46 47 47 48 48 49 49 49 48 48 48 42 49 49 48 50 51 52 52 54 57 58 59 60 60 61 60 60 59 60 61 59 59 60 58 59 58 58 56 56
46 44 46 47 48 46 46 46 47 46 46 48 48 49 37 49 52 51 51 51 52 53 58 58 58 60 59 59 59 59 59 60 60 59 59 59 58 58 57 57 57 58 57
48 47 46 45 46 45 48 49 46 47 47 47 48 50 50 50 51 53 53 54 56 59 59 59 59 60 59 59 59 59 58 58 59 59 59 59 58 57 57 57 56 56 55
48 48 48 48 49 49 49 48 49 45 49 50 50 52 53 54 54 55 57 58 57 58 59 60 61 58 59 59 59 58 58 59 60 59 59 58 57 55 56 55 53 49 43
52 50 48 49 49 49 50 51 51 52 51 53 53 53 52 51 51 52 54 55 56 58 59 60 59 59 60 59 58 58 47 43 56 50 55 55 56 56 52 46 43 41 40
49 49 50 50 50 51 51 51 52 52 53 53 52 52 51 49 50 51 52 54 56 57 58 59 58 57 55 54 55 43 39 40 47 44 52 52 51 49 47 44 41 36 34

GFSGL_sfc_dewp_078.txt.gz
Dewpoint
54 61 66 68 68 67 65 63 62 65 63 62 63 65 66 67 68 69 69 67 68 68 68 67 67 69 70 62 61 61 61 63 60 62 64 68 69 70 70 68 67 67 64
53 58 62 62 61 60 58 59 60 60 59 56 57 58 58 59 63 64 63 62 63 64 64 62 61 58 64 64 59 64 62 65 62 62 64 66 67 68 68 68 66 65 66
52 54 57 57 57 58 57 57 56 55 53 51 51 51 50 53 57 58 55 55 56 56 55 56 56 58 61 58 60 59 59 64 64 62 62 66 67 66 66 67 68 67 65
49 50 53 55 56 56 55 56 53 52 51 51 52 49 49 51 53 54 54 55 55 54 55 56 53 55 57 59 60 62 63 65 65 65 63 62 65 66 66 65 65 65 64
46 48 49 53 53 54 54 54 52 52 50 49 50 48 49 49 46 52 53 54 57 56 56 54 55 56 56 57 52 59 62 62 63 62 59 59 64 64 62 63 63 68 64
47 44 44 48 50 52 53 54 53 51 51 49 49 47 50 44 50 52 54 55 56 55 53 51 52 55 55 54 54 55 59 62 63 61 58 63 67 66 63 63 65 63 64
42 47 45 44 46 49 51 51 53 55 57 55 52 51 53 53 48 48 49 53 52 53 53 52 49 41 50 50 52 53 53 53 56 64 65 65 64 66 66 65 65 64 65
40 42 48 46 43 46 49 52 56 56 59 58 57 55 56 52 46 45 47 50 51 51 52 52 53 53 53 54 54 54 54 58 64 64 65 67 68 69 68 66 68 68 65
39 39 42 48 46 44 48 52 54 57 58 59 56 56 56 53 44 44 47 47 49 50 50 50 51 50 46 46 58 57 55 57 56 53 53 51 52 52 61 65 64 64 58
40 39 39 41 48 47 48 53 55 56 56 53 54 55 50 53 43 42 45 41 46 45 50 51 46 49 45 46 59 59 55 56 61 65 62 58 57 60 52 67 64 58 60
40 40 41 42 43 46 51 52 54 54 53 56 53 54 53 52 52 42 42 44 41 42 43 43 43 42 44 43 44 60 58 59 62 63 64 64 64 62 62 64 68 61 62
39 39 41 44 42 41 48 49 50 53 53 54 52 50 49 52 45 43 41 41 44 45 44 43 46 45 45 44 48 50 45 48 65 65 65 63 61 62 62 64 66 65 67
41 41 42 43 43 43 46 47 46 50 46 46 45 46 45 45 49 43 41 41 42 45 43 42 44 44 43 48 46 43 43 60 64 62 60 62 62 63 66 65 66 65 65
40 42 42 42 43 46 41 42 43 43 45 43 44 43 43 44 44 46 48 48 43 46 46 46 45 46 44 48 51 54 57 63 64 65 63 62 61 62 64 63 64 65 65
40 40 41 41 43 42 44 43 41 46 42 42 44 43 43 42 43 42 43 45 46 44 47 49 47 50 52 52 55 57 60 63 63 64 62 61 61 61 61 62 63 63 61
40 40 40 41 42 41 42 42 40 40 39 39 39 42 41 39 39 40 40 40 40 39 46 48 48 51 50 48 53 57 60 60 62 62 61 60 59 60 60 61 63 63 61
40 41 41 41 40 41 42 42 42 42 41 40 40 40 40 39 40 40 40 40 39 42 48 46 48 48 48 49 51 56 59 61 62 61 60 60 59 60 57 60 60 58 60
42 41 42 41 41 40 40 40 41 44 42 43 40 41 39 39 40 40 40 41 47 46 50 49 48 49 50 51 51 54 58 61 61 61 62 62 61 60 58 59 58 59 57
42 42 41 41 40 41 43 43 43 43 44 42 42 41 41 39 39 39 39 47 45 45 47 49 49 49 50 53 56 58 59 61 61 59 61 62 61 61 59 58 59 50 54
42 40 41 44 42 44 46 44 45 46 45 44 44 45 44 45 46 46 46 48 48 47 47 51 48 49 50 53 58 60 61 60 60 62 62 62 63 61 59 59 59 56 56
41 41 40 46 44 43 44 45 47 47 45 45 46 45 41 47 44 45 46 47 48 47 47 50 49 50 52 55 59 61 60 61 61 62 61 62 61 59 60 60 57 54 55
41 42 43 44 44 44 46 47 48 47 46 46 46 46 37 49 45 44 44 44 45 46 47 48 49 52 56 59 59 60 61 61 61 62 63 61 60 59 59 58 57 60 57
47 46 46 44 45 44 46 48 46 46 45 45 46 47 48 49 50 51 50 48 47 47 47 49 52 56 59 61 62 62 61 61 61 63 62 61 61 59 58 57 59 59 56
49 48 45 45 45 46 46 48 45 43 45 46 47 49 51 51 52 53 55 55 54 53 53 55 58 59 60 61 63 63 63 64 64 62 62 61 58 55 56 57 57 57 54
49 49 49 49 49 46 47 48 48 48 48 48 49 51 53 55 55 55 57 57 58 59 59 59 60 60 60 61 61 59 51 44 58 52 56 56 56 57 57 56 52 50 48
46 47 48 49 50 51 50 48 50 50 51 52 54 53 54 53 53 53 56 58 58 58 59 61 61 61 61 59 58 46 43 43 53 44 56 57 56 55 53 52 50 45 44

GFSGL_sfc_dewp_084.txt.gz
Dewpoint
48 52 55 55 58 59 64 66 68 68 68 68 69 70 70 71 71 71 70 70 70 69 69 69 68 69 67 66 66 67 67 67 65 63 64 66 66 66 68 68 68 67 64
46 50 53 54 58 62 63 65 67 67 67 68 65 66 68 68 66 67 68 69 68 69 69 68 67 66 68 68 68 67 66 66 65 62 63 64 66 67 67 66 67 68 67
44 44 52 53 57 60 62 65 67 67 68 64 61 60 59 59 60 62 66 67 67 68 68 68 67 68 67 68 66 65 65 64 63 62 61 64 65 66 66 66 65 66 67
41 41 49 53 56 56 60 63 65 66 65 58 58 58 59 57 57 63 66 66 66 66 67 67 66 66 65 65 64 63 63 63 62 61 62 62 62 63 66 64 63 65 65
43 44 46 52 55 55 57 60 62 59 59 62 59 58 63 57 62 63 63 63 65 64 65 64 64 61 57 57 59 60 59 58 60 59 59 61 60 60 62 63 62 63 64
43 43 44 46 49 53 55 56 56 57 56 57 62 57 58 63 53 53 59 62 63 61 60 60 59 55 53 50 50 51 55 58 58 58 57 57 58 61 61 62 62 60 58
41 43 43 44 46 50 52 54 56 57 60 60 57 57 57 56 48 49 54 61 61 61 61 61 54 51 54 57 52 51 51 50 53 59 59 59 61 62 63 63 62 61 61
41 41 41 42 43 47 53 55 56 55 57 60 59 57 58 55 46 47 52 62 61 62 62 60 57 56 55 54 54 55 58 60 59 56 58 59 61 64 64 63 62 62 62
42 41 41 43 42 44 50 54 56 55 55 61 60 60 59 52 44 45 53 61 59 59 58 59 59 57 45 44 53 54 56 58 56 51 50 50 49 50 55 62 62 59 59
41 41 41 43 44 43 50 54 54 55 54 56 61 61 56 55 44 44 54 54 57 56 58 58 47 53 45 44 54 56 56 57 59 60 60 58 53 59 50 62 64 59 59
41 43 42 42 43 46 47 55 53 54 55 56 58 62 59 54 48 43 46 53 53 53 53 56 55 44 41 41 43 55 56 57 58 60 58 57 61 66 65 62 65 62 60
41 41 42 42 42 42 45 51 54 53 52 53 57 58 60 55 46 41 41 44 48 51 52 52 51 42 43 41 44 48 44 47 58 57 56 59 63 64 65 65 63 65 65
41 40 40 43 42 43 43 45 51 53 52 52 55 57 59 57 52 43 39 39 40 52 53 44 43 41 42 43 43 41 40 52 55 56 55 59 64 65 64 63 64 65 63
41 40 41 41 42 43 41 44 47 51 50 52 52 53 57 57 53 45 42 43 42 44 45 49 46 44 41 43 44 45 51 56 56 55 56 62 65 64 63 63 63 63 61
42 40 41 41 40 41 42 43 46 52 50 49 49 50 50 54 56 51 47 46 47 45 50 50 51 51 50 51 51 50 50 51 54 56 56 60 63 63 62 62 62 62 61
42 41 41 41 41 41 41 42 42 41 41 44 44 48 50 46 48 47 44 45 44 42 47 48 48 50 51 50 50 52 54 52 54 56 57 61 62 62 61 62 61 62 60
42 41 41 41 41 41 43 43 43 43 41 41 41 40 42 46 43 44 42 41 41 41 48 48 50 50 48 47 49 50 50 52 56 55 55 59 61 61 57 61 61 61 60
42 41 41 40 42 41 41 43 43 44 45 45 41 42 42 42 42 41 39 42 43 44 48 49 47 47 46 44 45 46 50 51 56 56 58 60 62 61 60 59 61 60 60
42 41 42 41 41 42 41 42 42 45 44 45 45 41 41 40 40 39 39 47 46 45 46 46 46 45 46 46 46 46 48 51 54 57 59 60 61 61 60 60 60 53 54
42 40 41 42 42 43 45 44 45 46 46 45 44 44 43 44 45 47 46 47 47 46 46 46 45 45 44 44 46 46 48 51 57 59 60 60 62 62 60 60 59 59 59
43 42 40 43 42 41 44 45 46 46 46 45 45 44 35 44 43 43 44 45 46 45 46 46 44 44 45 46 46 47 48 51 55 60 60 60 61 61 60 60 60 60 59
45 42 42 44 43 41 42 45 45 45 45 46 45 43 37 46 45 43 44 45 45 46 46 46 44 43 44 44 46 47 50 56 60 60 61 61 61 60 60 60 60 60 59
48 48 46 46 45 41 44 46 46 45 45 44 46 45 45 47 45 44 45 45 46 46 45 45 45 44 45 48 51 52 50 55 60 61 61 61 61 60 60 60 59 59 58
41 46 49 48 47 47 48 48 48 44 46 46 47 47 48 47 47 47 47 49 46 47 46 46 46 46 48 49 50 55 59 61 61 61 61 61 61 57 60 59 59 58 57
36 38 39 43 46 49 49 49 48 48 48 48 49 50 49 49 48 48 49 49 51 49 51 49 49 48 48 50 54 57 52 43 56 52 61 61 60 59 59 59 58 56 54
33 34 35 37 38 41 43 45 51 50 49 50 52 52 52 51 52 52 53 51 49 49 51 52 54 54 52 54 54 51 43 39 48 41 59 61 60 59 59 59 57 54 53

GFSGL_sfc_dewp_087.txt.gz
Dewpoint
42 43 44 45 52 52 56 59 59 59 62 65 67 67 67 65 67 68 69 68 68 68 69 68 68 67 66 66 66 64 64 64 61 62 64 63 64 63 65 65 66 64 64
41 43 42 48 50 50 57 57 57 58 59 61 66 66 65 64 59 58 63 66 63 66 67 67 67 67 66 66 65 64 64 64 63 62 61 61 62 63 64 63 64 66 66
40 41 41 41 48 50 55 55 55 58 60 62 64 63 61 63 59 60 59 60 60 59 64 66 65 66 65 66 65 65 64 64 63 61 60 61 62 63 63 62 63 63 65
42 43 43 43 43 47 53 54 55 56 57 60 60 59 58 59 59 60 60 59 58 58 60 64 64 65 65 65 64 63 62 61 60 59 59 59 60 60 62 61 60 62 62
40 39 40 42 43 45 48 53 55 56 57 59 59 57 56 57 57 58 57 57 56 57 60 62 64 64 63 62 62 60 54 53 55 56 55 56 57 57 57 59 59 61 60
40 40 39 39 40 43 45 51 53 55 56 59 57 58 55 58 53 53 57 60 63 64 62 63 61 59 56 54 53 51 48 51 51 52 51 51 51 56 58 59 57 56 55
41 40 40 41 40 40 41 46 53 52 53 55 55 59 56 57 49 50 54 62 62 62 62 57 52 51 52 49 48 48 49 50 51 53 52 53 54 57 59 58 58 57 56
40 40 41 41 40 40 41 46 52 52 52 54 55 58 57 59 48 47 49 59 61 60 58 56 51 52 52 53 52 52 53 54 53 52 54 55 56 57 60 60 60 59 58
38 39 40 40 41 40 41 42 49 53 53 53 55 56 56 57 51 45 50 58 59 59 57 53 52 51 45 46 48 48 49 51 54 53 51 50 49 51 54 60 59 57 55
39 40 39 39 41 41 40 45 50 53 53 55 55 56 57 57 48 48 54 57 57 56 53 52 50 50 42 45 48 48 49 52 54 56 55 51 49 53 49 59 60 60 55
40 39 40 40 40 42 42 43 46 52 53 53 54 55 56 53 50 48 50 54 54 52 51 50 50 45 41 42 46 51 49 53 53 55 55 54 55 58 61 58 61 62 57
41 41 40 39 40 41 41 40 46 50 50 52 53 53 55 54 46 44 48 48 50 50 50 52 50 43 41 40 42 43 43 45 53 54 53 53 54 58 62 62 62 62 61
42 41 41 40 39 39 43 42 44 48 49 51 52 52 53 56 53 46 45 46 46 50 51 49 42 41 41 40 41 42 43 48 51 51 52 52 55 60 61 62 61 61 61
42 42 42 41 40 39 41 42 42 45 51 50 52 51 52 56 54 51 46 45 44 44 45 44 44 43 43 45 43 42 47 49 49 51 53 54 59 60 60 60 59 60 58
42 43 42 42 40 39 41 43 41 46 48 51 50 52 50 55 55 50 49 45 43 43 46 45 45 44 43 44 46 47 47 48 51 53 54 54 56 59 59 60 59 59 57
42 42 41 41 41 40 39 40 40 41 40 40 41 48 53 51 47 46 48 48 44 42 45 43 43 45 44 45 48 49 50 49 49 50 54 55 58 59 59 59 59 59 57
41 41 41 40 40 40 40 41 40 43 41 40 40 42 43 49 46 46 46 47 44 42 44 45 45 46 48 50 49 48 47 48 51 53 53 56 57 58 57 58 59 59 58
43 41 41 40 40 42 41 43 42 45 42 43 42 42 43 44 44 45 45 45 50 45 46 46 47 50 49 46 44 43 44 46 49 53 54 55 57 57 58 58 59 58 57
43 43 42 42 41 44 43 44 43 44 44 45 43 41 40 40 40 42 42 51 51 48 47 48 48 47 45 44 44 44 44 46 48 52 55 56 57 57 57 58 58 50 53
43 39 41 43 42 43 45 44 45 44 46 45 44 45 43 43 47 43 44 50 51 50 48 47 47 45 45 44 44 45 46 46 47 53 56 57 57 58 58 58 57 57 57
46 44 41 43 44 42 43 44 44 44 43 43 44 44 36 44 44 47 47 46 46 47 47 46 46 45 45 45 44 44 45 47 49 54 56 57 57 57 58 58 58 58 58
42 47 46 45 43 41 42 44 43 44 44 44 44 43 35 44 45 46 46 48 46 46 46 47 45 45 44 44 45 46 46 46 50 56 57 57 57 58 58 58 57 57 56
37 39 41 46 45 42 42 44 44 44 44 44 43 45 44 44 45 46 46 46 46 46 46 46 45 44 44 44 45 47 48 47 53 57 57 57 57 58 58 57 58 57 57
34 35 37 38 39 42 47 46 46 44 45 44 44 45 47 44 45 45 45 47 46 46 47 46 45 44 44 44 45 45 47 55 59 59 58 57 58 55 58 57 58 58 58
32 32 33 34 35 37 38 40 44 48 48 47 47 47 47 47 47 47 46 47 47 48 47 46 46 45 45 45 47 47 45 40 55 51 59 58 58 58 59 58 58 58 55
32 31 31 31 32 32 34 35 37 39 41 47 49 48 48 48 47 48 49 48 48 48 47 49 47 47 47 48 48 44 40 39 46 41 57 59 58 59 59 58 58 56 55